This is the latest recevied weather packets stored in our database for station/object K8JCL-13. If no packets are shown the sender has not sent any weather packets the latest 10 day(s).
| Time | Temp. | Humidity | Pressure | Rain* | Wind** | Luminosity | Snow |
|---|---|---|---|---|---|---|---|
| 1778194019 | 14.44° C | 49% | 1013.6 hPa | 0 mm | - | 31 W/m² | - |
| 1778193715 | 14.44° C | 45% | 1013.8 hPa | 0 mm | - | 31 W/m² | - |
| 1778193412 | 14.44° C | 46% | 1013.8 hPa | 0 mm | - | 34 W/m² | - |
| 1778193109 | 14.44° C | 45% | 1013.7 hPa | 0 mm | - | 32 W/m² | - |
| 1778192806 | 14.44° C | 49% | 1013.8 hPa | 0 mm | - | 33 W/m² | - |
| 1778192502 | 14.44° C | 47% | 1014 hPa | 0 mm | - | 35 W/m² | - |
| 1778192199 | 15° C | 44% | 1013.9 hPa | 0 mm | - | 43 W/m² | - |
| 1778191895 | 15° C | 46% | 1014.2 hPa | 0 mm | - | 46 W/m² | - |
| 1778191592 | 15° C | 45% | 1014.1 hPa | 0 mm | - | 43 W/m² | - |
| 1778191290 | 14.44° C | 43% | 1014.4 hPa | 0 mm | - | 46 W/m² | - |
| 1778190986 | 14.44° C | 44% | 1014.2 hPa | 0 mm | - | 49 W/m² | - |
| 1778190684 | 14.44° C | 44% | 1014.3 hPa | 0 mm | - | 54 W/m² | - |
| 1778190380 | 14.44° C | 43% | 1014.4 hPa | 0 mm | - | 80 W/m² | - |
| 1778190077 | 14.44° C | 42% | 1014.2 hPa | 0 mm | - | 82 W/m² | - |
| 1778189773 | 14.44° C | 42% | 1014.1 hPa | 0 mm | - | 73 W/m² | - |
| 1778189470 | 14.44° C | 44% | 1014 hPa | 0 mm | - | 67 W/m² | - |
| 1778189166 | 15° C | 45% | 1014.3 hPa | 0 mm | - | 79 W/m² | - |
| 1778188863 | 15° C | 44% | 1014.1 hPa | 0 mm | - | 95 W/m² | - |
| 1778188560 | 15° C | 45% | 1014.1 hPa | 0 mm | - | 85 W/m² | - |
| 1778188256 | 15° C | 45% | 1014.1 hPa | 0 mm | - | 115 W/m² | - |
| 1778187953 | 15° C | 45% | 1014.2 hPa | 0 mm | - | 59 W/m² | - |
| 1778187650 | 15° C | 45% | 1013.9 hPa | 0 mm | - | 74 W/m² | - |
| 1778187347 | 14.44° C | 44% | 1014 hPa | 0 mm | - | 93 W/m² | - |
| 1778187043 | 14.44° C | 44% | 1014.1 hPa | 0 mm | - | 82 W/m² | - |
| 1778186739 | 14.44° C | 44% | 1014 hPa | 0 mm | - | 77 W/m² | - |
* Rain latest hour (hover to see other rain measurements)
** Current wind speed in m/s (hover to see current wind gust speed)